Regional Weather Roundup
Issued by NWS

Home | Current Version | Previous Version | Graphics & Text | Print | Product List | Glossary On
Versions: 1 2 3 4 5 6 7 8 9 10 11 12 13 14 15 16 17 18 19 20 21 22 23 24 25 26 27 28 29 30 31 32 33 34 35 36 37 38 39 40 41 42 43 44 45 46 47 48 49 50
000
ASUS44 KMEG 220210
RWRTN
TENNESSEE HOURLY STATE WEATHER ROUNDUP
NATIONAL WEATHER SERVICE MEMPHIS TN
900 PM CDT TUE OCT 21 2014

TNZ002-004-019-021-049-052-054-088>092-220300-
WEST TENNESSEE

CITY           SKY/WX    TMP DP  RH WIND       PRES   REMARKS
MEMPHIS INTL   CLEAR     59  48  67 CALM      30.09R
NWS MEMPHIS      N/A     55 N/A N/A MISG        N/A
JACKSON        CLEAR     55  49  80 CALM      30.10R
DYERSBURG      CLEAR     57  41  54 NE6       30.12R
UNION CITY     CLEAR     57  45  62 NE9       30.11R
PARIS          CLEAR     52  45  76 NE5       30.13R
HUNTINGDON     CLEAR     56  44  64 NE8       30.12R
LEXINGTON      CLEAR     55  48  76 N6        30.09R
SAVANNAH       CLEAR     52  52 100 CALM      30.09R
$$

TNZ008-025-027-028-033-062-065-066-220300-
NORTH MIDDLE TENNESSEE

CITY           SKY/WX    TMP DP  RH WIND       PRES   REMARKS
NASHVILLE      CLEAR     57  44  62 N10       30.11R
CLARKSVILLE    CLEAR     54  44  69 NE7       30.13R
SMYRNA         CLEAR     58  46  64 N9        30.12R
COOKEVILLE     CLEAR     52  45  76 NE3       30.10R
CROSSVILLE     MOCLDY    50  41  71 CALM      30.11R
$$

TNZ061-075-076-078-094-096-097-220300-
SOUTH MIDDLE TENNESSEE

CITY           SKY/WX    TMP DP  RH WIND       PRES   REMARKS
FAYETTEVILLE   CLEAR     57  45  62 N16G30    30.07R
TULLAHOMA      CLEAR     55  45  67 N7        30.09R
WINCHESTER     CLEAR     50  46  87 N3        30.08R
MCMINNVILLE    CLEAR     55  46  71 NE6       30.09R
COLUMBIA       CLEAR     57  50  77 N3        30.08R
SHELBYVILLE    CLEAR     57  46  67 N9        30.09R
$$

TNZ017-018-042-046-047-220300-
NORTHEAST TENNESSEE

CITY           SKY/WX    TMP DP  RH WIND       PRES   REMARKS
TRI CITIES     MOCLDY    50  38  63 N6        30.09R
ELIZABETHTON   PTCLDY    46  37  71 CALM      30.08R
$$

TNZ012-013-036-069-073-074-220300-
CENTRAL EAST TENNESSEE

CITY           SKY/WX    TMP DP  RH WIND       PRES   REMARKS
KNOXVILLE      PTCLDY    54  40  59 N15       30.08R
OAK RIDGE      PTCLDY    54  41  61 CALM      30.12R
GATLINBURG     MOCLDY    52  37  58 CALM      30.10R
MORRISTOWN     PTCLDY    52  39  62 N5        30.10R
$$

TNZ083-085-099-220300-
SOUTHEAST TENNESSEE

CITY           SKY/WX    TMP DP  RH WIND       PRES   REMARKS
CHATTANOOGA    CLEAR     60  48  64 N8        30.06R
$$

SKY/WX REPORTED AS FAIR MEANS FEW OR NO CLOUDS BELOW
12 THOUSAND FEET.




USA.gov is the U.S. government's official web portal to all federal, state and local government web resources and services.